World > North America > United States > Florida

Panama City, Florida Regional Weather

Lat: 30.17N, Lon: 85.67W
Wx Zone: FLZ012
Feedback

Panama City, FL Regional Weather

Expires:201910171400;;844364
ASUS42 KTBW 171319
RWRFL 
FLORIDA REGIONAL WEATHER ROUNDUP
NATIONAL WEATHER SERVICE TAMPA BAY RUSKIN FL
900 AM EDT THU OCT 17 2019

NOTE: "FAIR" INDICATES FEW OR NO CLOUDS BELOW 12,000 FEET WITH NO
SIGNIFICANT WEATHER AND/OR OBSTRUCTIONS TO VISIBILITY.


FLZ001>010-012>015-112-114-115-171400-
PANHANDLE FLORIDA
  
CITY           SKY/WX    TMP DP  RH WIND       PRES   REMARKS
PENSACOLA      FAIR      57  51  80 N6        30.02R                  
PENSACOLA NAS  PTSUNNY   56  51  84 N9        30.02R                  
MILTON NAS     PTSUNNY   51  48  89 N6        30.03R                  
CRESTVIEW      FAIR      53  49  86 VRB3      30.04R                  
DUKE FIELD     FAIR      53  50  92 N9        30.01R                  
VALPARAISO     FAIR      55  49  81 N8        30.01R                  
MARY ESTHER    PTSUNNY   54  49  83 N8        30.00R                  
TRI COUNTY     FAIR      55  51  86 N7        30.02R                  
PANAMA CITY    FAIR      57  51  80 N7        30.00R                  
TYNDALL AFB    FAIR      59  50  71 NE9       29.99R                  
APALACHICOLA   FAIR      61  48  62 NE10      29.98R                  

STATION/POSITION SKY/WX   TEMP    WIND        PRES    WAVE   SWELL
                          AIR SEA DIR/SP/G            HT/PER HT/PER
                          (F)     (DEG/KT/KT) (MB)    (FT/S) (FT/S)
30.1N   87.6W              65      40/ 14/ 17 1016.2
29.2N   88.2W              72      60/ 12/ 14 1015.4R   3/ 5
28.8N   86.0W                 83   30/ 14/ 17 1014.8R   4/ 6
PANAMA CITY BEAC           57 80   30/  9/ 12 1016.0R
TOWER C                    66      40/ 14/ 15 1015.4R
28.5N   84.5W              76      10/ 10/ 14 1015.2R   3/ 6   2/ 6

$$

SKY/WX - Weather  TMP - Temperature  DP - Dew Point  RH - Relative Humidity
WIND - Wind Direction/Speed PRES - Barometric Pressure VSB - Visibility
WCI - Wind Chill Index E13G22 Wind - East Wind 13 mph/Gusts of 22 mph